DW5212 Weather Reports


time (UTC)temp
C
wind
direction
speed
KPH
gust
KPH
rain 1hr
cm
rain 24hr
cm
rain mn
cm
humidity
%
barometer
mb
20260902022004 26 127 0.0 0.0 0.00 0.00 0.00 81 1015.5
20260902021503 26 95 0.0 1.6 0.00 0.00 0.00 80 1015.4
20260902021004 26 95 0.0 3.2 0.00 0.00 0.00 80 1015.1
20260902020503 26 95 0.0 3.2 0.00 0.00 0.00 80 1014.8
20260902020004 26 105 0.0 3.2 0.00 0.00 0.00 79 1015.0
20260902015503 26 105 0.0 3.2 0.00 0.00 0.00 79 1014.9
20260902015003 26 63 0.0 0.0 0.00 0.00 0.00 78 1015.0
20260902014503 27 63 0.0 0.0 0.00 0.00 0.00 78 1015.2
20260902014004 27 63 0.0 0.0 0.00 0.00 0.00 78 1015.2
20260902013503 27 63 0.0 0.0 0.00 0.00 0.00 77 1015.0
20260902013004 27 63 0.0 0.0 0.00 0.00 0.00 77 1014.9
20260902011504 27 63 0.0 0.0 0.00 0.00 0.00 76 1015.1
20260902011003 27 63 0.0 0.0 0.00 0.00 0.00 75 1015.2
20260902010503 27 63 0.0 3.2 0.00 0.00 0.00 74 1015.1
20260902005504 28 74 1.6 4.8 0.00 0.00 0.00 73 1015.2
20260902005004 28 74 1.6 9.7 0.00 0.00 0.00 73 1015.2
20260902004503 28 188 1.6 4.8 0.00 0.00 0.00 73 1015.2
20260902004004 28 188 1.6 11.3 0.00 0.00 0.00 72 1015.2
20260902003503 28 148 3.2 11.3 0.00 0.00 0.00 72 1015.2
20260902003005 28 145 3.2 9.7 0.00 0.00 0.00 72 1015.3
20260902002502 28 108 1.6 6.4 0.00 0.00 0.00 72 1015.2
20260902002004 28 86 0.0 3.2 0.00 0.00 0.00 72 1015.2
20260902001503 28 54 1.6 4.8 0.00 0.00 0.00 72 1015.2
20260902001004 28 137 0.0 3.2 0.00 0.00 0.00 72 1015.1
20260902000503 28 70 0.0 3.2 0.00 0.00 0.00 71 1015.2
20260902000006 29 219 0.0 1.6 0.00 0.00 0.00 71 1015.3
20260901235507 29 219 1.6 6.4 0.00 0.00 0.00 70 1015.2
20260901235005 29 218 3.2 6.4 0.00 0.00 0.00 70 1015.2
20260901234504 29 137 1.6 6.4 0.00 0.00 0.00 70 1015.1
20260901234003 29 265 1.6 3.2 0.00 0.00 0.00 70 1015.1
20260901233504 29 102 1.6 9.7 0.00 0.00 0.00 71 1014.9
20260901233004 29 49 1.6 9.7 0.00 0.00 0.00 70 1015.0
20260901232504 29 56 0.0 3.2 0.00 0.00 0.00 71 1014.9
20260901231503 29 117 1.6 6.4 0.00 0.00 0.00 70 1014.9
20260901231004 30 100 1.6 6.4 0.00 0.00 0.00 70 1014.9
20260901230504 30 140 1.6 9.7 0.00 0.00 0.00 69 1014.8
20260901225504 30 94 0.0 6.4 0.00 0.00 0.00 70 1014.8
20260901225005 30 153 1.6 3.2 0.00 0.00 0.00 70 1014.7
20260901224504 30 153 1.6 4.8 0.00 0.00 0.00 70 1014.8
20260901223504 30 157 1.6 9.7 0.00 0.00 0.00 70 1014.8
20260901223007 30 207 3.2 9.7 0.00 0.00 0.00 70 1014.8
20260901222504 30 109 3.2 9.7 0.00 0.00 0.00 70 1014.8
20260901222004 29 264 1.6 8.0 0.00 0.00 0.00 69 1014.9
20260901221005 30 180 3.2 9.7 0.00 0.00 0.00 69 1014.8
20260901220503 30 188 3.2 9.7 0.00 0.00 0.00 69 1015.0
20260901220006 30 15 3.2 14.5 0.00 0.00 0.00 69 1014.9
20260901215004 30 133 3.2 12.9 0.00 0.00 0.00 69 1015.2
20260901214503 30 205 3.2 11.3 0.00 0.00 0.00 69 1015.2
20260901214003 30 119 1.6 11.3 0.00 0.00 0.00 69 1015.2
20260901213503 30 281 1.6 8.0 0.00 0.00 0.00 71 1015.2
20260901213004 30 294 1.6 8.0 0.00 0.00 0.00 70 1015.3
20260901212503 30 187 3.2 8.0 0.00 0.00 0.00 70 1015.2
20260901210504 30 127 3.2 8.0 0.00 0.00 0.00 70 1015.1
20260901210006 30 207 4.8 16.1 0.00 0.00 0.00 70 1015.2
20260901205506 30 177 4.8 12.9 0.00 0.00 0.00 70 1015.2
20260901204504 30 202 3.2 8.0 0.00 0.00 0.00 71 1015.1
20260901204004 30 61 3.2 11.3 0.00 0.00 0.00 70 1015.1
20260901203503 30 167 4.8 14.5 0.00 0.00 0.00 69 1015.2
20260901203004 30 193 4.8 14.5 0.00 0.00 0.00 68 1015.3
20260901202503 31 177 4.8 16.1 0.00 0.00 0.00 66 1015.3
20260901202004 31 202 4.8 20.9 0.00 0.00 0.00 63 1015.4
20260901201004 33 172 3.2 14.5 0.00 0.00 0.00 58 1015.4
20260901200503 33 198 4.8 17.7 0.00 0.00 0.00 55 1015.4
20260901200003 34 71 4.8 14.5 0.00 0.00 0.00 53 1015.4
20260901195503 35 111 4.8 17.7 0.00 0.00 0.00 52 1015.3
20260901195004 35 159 4.8 17.7 0.00 0.00 0.00 51 1015.3
20260901194503 36 140 3.2 9.7 0.00 0.00 0.00 50 1015.4
20260901194004 36 196 4.8 11.3 0.00 0.00 0.00 48 1015.4
20260901193504 36 83 6.4 16.1 0.00 0.00 0.00 49 1015.4
20260901193004 36 109 4.8 17.7 0.00 0.00 0.00 48 1015.7
20260901192503 36 117 4.8 14.5 0.00 0.00 0.00 47 1015.7
20260901191504 36 155 6.4 16.1 0.00 0.00 0.00 48 1015.5
20260901191004 36 219 4.8 24.1 0.00 0.00 0.00 47 1015.6
20260901190503 36 94 4.8 11.3 0.00 0.00 0.00 50 1015.6
20260901190004 36 95 4.8 11.3 0.00 0.00 0.00 50 1015.6
20260901185505 36 148 4.8 14.5 0.00 0.00 0.00 49 1015.6
20260901185004 36 202 4.8 19.3 0.00 0.00 0.00 50 1015.8
20260901184503 36 310 4.8 19.3 0.00 0.00 0.00 51 1016.0
20260901184004 35 121 4.8 11.3 0.00 0.00 0.00 51 1016.1
20260901183503 35 185 4.8 11.3 0.00 0.00 0.00 52 1016.1
20260901183004 35 141 4.8 11.3 0.00 0.00 0.00 52 1016.1
20260901182004 35 167 3.2 11.3 0.00 0.00 0.00 53 1016.4
20260901181504 35 355 3.2 6.4 0.00 0.00 0.00 55 1016.5
20260901181004 34 92 3.2 6.4 0.00 0.00 0.00 54 1016.3
20260901180503 34 95 3.2 6.4 0.00 0.00 0.00 56 1016.3
20260901180006 35 128 3.2 6.4 0.00 0.00 0.00 55 1016.4
20260901175503 35 92 3.2 11.3 0.00 0.00 0.00 56 1016.3
20260901175004 34 150 3.2 11.3 0.00 0.00 0.00 55 1016.4
20260901174503 34 76 3.2 11.3 0.00 0.00 0.00 57 1016.5
20260901174005 34 92 3.2 11.3 0.00 0.00 0.00 55 1016.5
20260901173503 34 184 3.2 4.8 0.00 0.00 0.00 57 1016.5
20260901172503 34 9 3.2 9.7 0.00 0.00 0.00 57 1016.4
20260901172004 34 88 3.2 6.4 0.00 0.00 0.00 57 1016.6
20260901171004 33 90 3.2 6.4 0.00 0.00 0.00 57 1016.6
20260901170503 33 24 3.2 6.4 0.00 0.00 0.00 58 1016.7
20260901170005 33 27 3.2 8.0 0.00 0.00 0.00 58 1016.7
20260901165503 33 76 3.2 11.3 0.00 0.00 0.00 58 1016.8
20260901165004 33 14 3.2 11.3 0.00 0.00 0.00 58 1016.9
20260901164503 33 71 3.2 8.0 0.00 0.00 0.00 60 1017.0
20260901164004 33 88 3.2 9.7 0.00 0.00 0.00 60 1017.0
20260901163504 33 213 3.2 14.5 0.00 0.00 0.00 60 1017.1
20260901163005 33 137 3.2 14.5 0.00 0.00 0.00 61 1017.2
20260901162502 33 121 3.2 9.7 0.00 0.00 0.00 62 1017.2
20260901162004 33 28 3.2 12.9 0.00 0.00 0.00 62 1017.3
20260901161504 33 63 3.2 12.9 0.00 0.00 0.00 63 1017.2
20260901161004 33 355 3.2 11.3 0.00 0.00 0.00 64 1017.4
20260901160504 33 126 3.2 11.3 0.00 0.00 0.00 65 1017.4
20260901160004 32 130 3.2 8.0 0.00 0.00 0.00 67 1017.4
20260901155005 32 189 3.2 9.7 0.00 0.00 0.00 68 1017.4
20260901154504 32 16 3.2 8.0 0.00 0.00 0.00 69 1017.6
20260901153503 31 90 1.6 9.7 0.00 0.00 0.00 72 1017.5
20260901153004 31 156 3.2 6.4 0.00 0.00 0.00 73 1017.5
20260901152503 30 34 3.2 6.4 0.00 0.00 0.00 73 1017.4
20260901152004 30 66 1.6 4.8 0.00 0.00 0.00 74 1017.4
20260901151003 30 78 1.6 4.8 0.00 0.00 0.00 76 1017.4
20260901150503 30 96 1.6 6.4 0.00 0.00 0.00 76 1017.4
20260901145504 30 35 3.2 8.0 0.00 0.00 0.00 78 1017.4
20260901144504 29 159 1.6 6.4 0.00 0.00 0.00 81 1017.6
20260901144004 28 134 1.6 4.8 0.00 0.00 0.00 82 1017.7
20260901143503 28 78 0.0 3.2 0.00 0.00 0.00 84 1017.7
20260901143004 28 45 1.6 4.8 0.00 0.00 0.00 85 1017.6
20260901142004 27 61 1.6 8.0 0.00 0.00 0.00 88 1017.7
20260901141004 26 28 1.6 4.8 0.00 0.00 0.00 90 1017.8
20260901140503 26 104 1.6 4.8 0.00 0.00 0.00 90 1017.9
20260901140004 26 155 1.6 6.4 0.00 0.00 0.00 91 1017.9
20260901135004 25 40 0.0 3.2 0.00 0.00 0.00 91 1017.9
20260901134003 25 84 0.0 0.0 0.00 0.00 0.00 92 1017.8
20260901133503 25 84 0.0 0.0 0.00 0.00 0.00 93 1017.8
20260901133004 25 141 0.0 0.0 0.00 0.00 0.00 93 1017.7
20260901132503 24 141 0.0 0.0 0.00 0.00 0.00 94 1017.6
20260901131503 24 76 0.0 0.0 0.00 0.00 0.00 94 1017.5
20260901131003 23 76 0.0 0.0 0.00 0.00 0.00 94 1017.6
20260901130502 23 85 0.0 0.0 0.00 0.00 0.00 95 1017.5
20260901130006 23 86 0.0 0.0 0.00 0.00 0.00 95 1017.4
20260901125503 23 88 0.0 0.0 0.00 0.00 0.00 95 1017.4
20260901125003 23 89 0.0 0.0 0.00 0.00 0.00 94 1017.3
20260901124504 23 88 0.0 0.0 0.00 0.00 0.00 94 1017.2
20260901124004 22 92 0.0 0.0 0.00 0.00 0.00 94 1017.2
20260901123503 22 91 0.0 0.0 0.00 0.00 0.00 94 1017.1
20260901122504 22 92 0.0 0.0 0.00 0.00 0.00 94 1016.9
20260901122003 22 92 0.0 0.0 0.00 0.00 0.00 94 1016.9
20260901121503 22 92 0.0 0.0 0.00 0.00 0.00 94 1016.8
20260901121004 22 92 0.0 0.0 0.00 0.00 0.00 93 1016.7
20260901120503 22 92 0.0 0.0 0.00 0.00 0.00 93 1016.8
20260901120005 22 92 0.0 0.0 0.00 0.00 0.00 93 1016.5
20260901115500 22 92 0.0 0.0 0.00 0.00 0.00 93 1016.4
20260901115003 22 92 0.0 0.0 0.00 0.00 0.00 93 1016.5
20260901114504 22 92 0.0 0.0 0.00 0.00 0.00 92 1016.5
20260901114003 22 92 0.0 0.0 0.00 0.00 0.00 92 1016.6
20260901113003 22 92 0.0 0.0 0.00 0.00 0.00 93 1016.4
20260901112500 22 92 0.0 0.0 0.00 0.00 0.00 92 1016.3
20260901112003 22 92 0.0 0.0 0.00 0.00 0.00 92 1016.3
20260901111503 22 92 0.0 0.0 0.00 0.00 0.00 92 1016.4
20260901111003 22 92 0.0 0.0 0.00 0.00 0.00 92 1016.5
20260901110004 22 92 0.0 0.0 0.00 0.00 0.00 92 1016.3
20260901105500 22 92 0.0 0.0 0.00 0.00 0.00 92 1016.3
20260901105003 22 92 0.0 0.0 0.00 0.00 0.00 93 1016.3
20260901104503 22 92 0.0 0.0 0.00 0.00 0.00 93 1016.1
20260901104003 22 92 0.0 0.0 0.00 0.00 0.00 92 1016.3
20260901103459 22 92 0.0 0.0 0.00 0.00 0.00 92 1016.5
20260901103004 22 92 0.0 0.0 0.00 0.00 0.00 93 1016.5
20260901102500 22 92 0.0 0.0 0.00 0.00 0.00 93 1016.6
20260901101502 22 92 0.0 0.0 0.00 0.00 0.00 92 1016.3
20260901101004 22 92 0.0 0.0 0.00 0.00 0.00 92 1016.4
20260901100006 22 92 0.0 0.0 0.00 0.00 0.00 92 1016.5
20260901095503 22 92 0.0 0.0 0.00 0.00 0.00 92 1016.6
20260901095004 22 92 0.0 0.0 0.00 0.00 0.00 92 1016.6
20260901094003 22 92 0.0 0.0 0.00 0.00 0.00 92 1016.5
20260901093503 22 92 0.0 0.0 0.00 0.00 0.00 92 1016.4
20260901092503 23 92 0.0 0.0 0.00 0.00 0.00 91 1016.3
20260901092004 23 92 0.0 0.0 0.00 0.00 0.00 91 1016.2
20260901091500 23 92 0.0 0.0 0.00 0.00 0.00 91 1016.2
20260901090503 23 92 0.0 0.0 0.00 0.00 0.00 90 1016.3
20260901090004 23 92 0.0 0.0 0.00 0.00 0.00 90 1016.5
20260901085500 23 92 0.0 0.0 0.00 0.00 0.00 90 1016.5
20260901084502 23 92 0.0 0.0 0.00 0.00 0.00 90 1016.4
20260901084000 23 92 0.0 0.0 0.00 0.00 0.00 89 1016.3
20260901083503 23 92 0.0 0.0 0.00 0.00 0.00 90 1016.2
20260901082500 23 92 0.0 0.0 0.00 0.00 0.00 89 1016.1
20260901082004 23 92 0.0 0.0 0.00 0.00 0.00 89 1016.1
20260901081500 23 92 0.0 0.0 0.00 0.00 0.00 88 1016.1
20260901081004 23 92 0.0 0.0 0.00 0.00 0.00 88 1016.2
20260901080500 24 92 0.0 0.0 0.00 0.00 0.00 88 1016.3
20260901080003 24 92 0.0 0.0 0.00 0.00 0.00 88 1016.2
20260901075503 24 92 0.0 0.0 0.00 0.00 0.00 88 1016.4
20260901075003 24 92 0.0 0.0 0.00 0.00 0.00 87 1016.4
20260901074500 24 92 0.0 0.0 0.00 0.00 0.00 87 1016.5
20260901073501 24 92 0.0 0.0 0.00 0.00 0.00 87 1016.4
20260901073004 24 92 0.0 0.0 0.00 0.00 0.00 87 1016.3
20260901072500 24 92 0.0 0.0 0.00 0.00 0.00 87 1016.3
20260901072003 24 92 0.0 0.0 0.00 0.00 0.00 87 1016.2
20260901071504 24 92 0.0 0.0 0.00 0.00 0.00 87 1016.2
20260901071003 24 92 0.0 0.0 0.00 0.00 0.00 87 1016.2
20260901070500 24 92 0.0 0.0 0.00 0.00 0.00 87 1016.3
20260901070004 24 92 0.0 0.0 0.00 0.00 0.00 87 1016.3
20260901065500 25 92 0.0 0.0 0.00 0.00 0.00 86 1016.2
20260901065002 25 92 0.0 0.0 0.00 0.00 0.00 86 1016.3
20260901064500 25 92 0.0 0.0 0.00 0.00 0.00 86 1016.4
20260901064004 25 92 0.0 0.0 0.00 0.00 0.00 86 1016.4
20260901063503 25 92 0.0 0.0 0.00 0.00 0.00 86 1016.5
20260901063003 25 92 0.0 0.0 0.00 0.00 0.00 86 1016.6
20260901062003 25 92 0.0 0.0 0.00 0.00 0.00 85 1016.6
20260901060500 25 92 0.0 4.8 0.00 0.00 0.00 85 1016.7
20260901055504 25 89 0.0 1.6 0.00 0.00 0.00 85 1016.7
20260901055004 25 88 0.0 1.6 0.00 0.00 0.00 84 1016.7
20260901054504 25 89 0.0 1.6 0.00 0.00 0.00 84 1016.7
20260901054006 25 89 0.0 1.6 0.00 0.00 0.00 84 1016.6
20260901052504 25 89 0.0 0.0 0.00 0.00 0.00 83 1016.6
20260901052004 25 89 0.0 0.0 0.00 0.00 0.00 83 1016.5
20260901051504 26 89 0.0 0.0 0.00 0.00 0.00 82 1016.5
20260901051006 26 89 0.0 0.0 0.00 0.00 0.00 82 1016.6
20260901050010 26 88 0.0 0.0 0.00 0.00 0.00 82 1016.4
20260901045504 26 88 0.0 0.0 0.00 0.00 0.00 81 1016.3
20260901045004 26 88 0.0 0.0 0.00 0.00 0.00 81 1016.3
20260901044506 26 88 0.0 0.0 0.00 0.00 0.00 81 1016.4
20260901044004 26 89 0.0 0.0 0.00 0.00 0.00 81 1016.3
20260901043503 26 88 0.0 0.0 0.00 0.00 0.00 81 1016.3
20260901043004 26 88 0.0 0.0 0.00 0.00 0.00 80 1016.3
20260901042004 26 88 0.0 0.0 0.00 0.00 0.00 80 1016.1
20260901041504 26 88 0.0 0.0 0.00 0.00 0.00 80 1016.0
20260901040503 26 88 0.0 1.6 0.00 0.00 0.00 79 1016.0
20260901035503 26 89 0.0 0.0 0.00 0.00 0.00 79 1015.9
20260901035004 26 88 0.0 0.0 0.00 0.00 0.00 79 1015.8
20260901034504 27 89 0.0 0.0 0.00 0.00 0.00 78 1015.8
20260901034004 27 89 0.0 1.6 0.00 0.00 0.00 78 1015.9
20260901033503 27 88 0.0 1.6 0.00 0.00 0.00 78 1016.0
20260901032504 27 89 0.0 0.0 0.00 0.00 0.00 77 1015.9
20260901032004 27 89 0.0 0.0 0.00 0.00 0.00 77 1015.9
20260901031504 27 89 0.0 0.0 0.00 0.00 0.00 77 1015.9
20260901031004 27 89 0.0 0.0 0.00 0.00 0.00 76 1015.8
20260901030504 27 89 0.0 0.0 0.00 0.00 0.00 76 1015.7
20260901025504 27 89 0.0 1.6 0.00 0.00 0.00 76 1015.7
20260901025004 27 89 0.0 1.6 0.00 0.00 0.00 75 1015.7
20260901024504 27 89 0.0 3.2 0.00 0.00 0.00 75 1015.7
20260901024005 27 130 0.0 1.6 0.00 0.00 0.00 74 1015.7
20260901023006 27 130 0.0 3.2 0.00 0.00 0.00 73 1015.6
20260901022504 28 201 0.0 0.0 0.00 0.00 0.00 73 1015.5